Wind_Speed
24 24 24 24 24 25 25 25 25 25 24 24 24 25 25 25 25 26 26 25 25 25 24 22 20 17 14 13 13 13 14 16 17 18 18 18 17 16 15 14 12 10 8 5 2 1 3 5 6 7 9 10 11 12 12 11 10 9 9 9 10 11 13 14 16 17 17 17 17
23 23 23 24 24 24 24 24 24 24 24 24 23 24 24 24 24 23 22 21 20 17 15 12 9 7 7 8 10 12 15 17 18 18 18 17 16 14 13 11 9 6 4 2 1 2 4 7 9 10 11 12 13 12 11 10 8 8 8 10 11 13 14 16 18 18 18 18 18
23 23 23 23 23 23 23 23 23 23 23 22 22 22 22 21 20 19 17 15 13 10 7 4 2 4 7 10 13 15 17 18 19 18 17 15 13 11 9 8 6 4 2 1 3 5 8 10 12 12 13 13 13 12 10 8 7 8 9 11 12 14 16 19 19 19 18 18 18
22 22 22 22 22 22 22 22 22 21 21 21 20 19 18 17 15 13 12 10 8 5 2 2 5 8 11 14 16 18 18 18 18 16 14 12 10 8 7 6 4 3 3 6 8 10 12 12 14 14 14 13 12 10 9 8 7 9 11 13 15 17 18 19 19 19 18 18 18
21 21 21 21 21 20 20 20 19 19 19 18 17 16 14 12 11 9 7 6 4 1 2 5 9 12 15 17 18 18 17 16 14 13 11 9 8 6 4 2 1 5 9 10 11 13 14 14 15 14 13 11 9 8 7 8 9 11 13 15 17 19 19 19 19 19 18 18 18
20 20 20 20 19 19 18 18 17 17 16 15 14 12 10 9 7 6 4 3 0 3 6 9 12 16 17 18 18 17 15 13 11 9 8 6 5 3 1 1 5 8 11 13 14 15 15 15 14 12 10 8 7 8 9 10 12 14 16 18 19 19 19 19 19 18 18 18 18
20 19 19 18 17 17 16 16 16 15 14 12 11 9 7 6 4 3 1 1 3 6 9 12 15 17 18 17 16 14 12 10 8 7 5 4 3 2 3 5 9 12 14 16 16 15 14 13 11 9 7 7 9 10 11 12 14 16 18 19 19 19 18 18 18 17 17 18 18
19 18 17 17 16 15 15 14 13 12 11 9 8 6 4 3 1 0 2 4 7 9 12 14 16 17 16 15 13 11 9 7 6 4 4 4 4 3 5 8 12 15 16 15 14 13 12 11 8 7 8 9 11 12 13 15 17 18 19 19 18 18 17 17 17 17 18 18 19
18 17 16 15 15 14 13 12 11 10 8 7 5 3 2 1 2 3 5 8 10 12 13 15 15 15 14 13 11 8 7 5 3 2 1 2 3 6 10 13 15 16 15 14 13 12 10 8 8 9 10 11 13 15 16 17 18 18 18 18 18 17 17 18 18 18 18 19 19
17 16 16 15 14 13 12 11 9 8 6 4 2 2 2 3 3 4 7 10 12 13 13 14 14 13 11 9 7 5 3 1 1 3 4 5 8 12 15 16 16 15 14 12 11 9 8 7 9 10 12 13 15 17 18 18 18 18 18 18 18 19 19 19 19 19 19 19 20
16 16 15 14 13 12 10 9 7 6 4 2 2 3 4 4 4 5 7 10 11 12 13 12 11 10 7 4 3 2 3 3 5 7 8 11 13 15 16 16 15 14 12 10 8 7 7 8 10 12 14 15 16 18 18 19 19 19 19 19 20 20 20 20 20 20 20 20 21
16 15 14 13 12 10 9 7 5 4 3 3 3 4 4 4 4 5 6 9 10 11 11 10 9 6 3 1 3 4 5 7 8 10 11 13 14 15 14 13 12 10 8 6 5 6 9 11 13 14 15 16 18 19 20 20 20 20 20 21 20 20 21 21 21 21 21 21 21
15 14 13 11 10 9 7 6 4 3 3 3 4 4 4 3 3 4 6 8 9 9 8 7 5 3 2 3 5 6 7 9 10 11 11 11 11 11 10 9 7 6 5 6 7 9 11 13 14 16 18 19 20 21 21 22 22 21 21 21 21 21 21 21 21 21 22 22 22
14 13 12 10 9 7 6 4 3 2 3 3 3 3 3 3 3 4 5 6 6 5 5 4 4 3 3 4 5 7 8 10 11 11 10 9 7 6 5 5 6 7 8 9 11 12 14 16 17 19 20 21 22 22 23 22 22 22 21 21 21 21 21 21 22 22 22 23 23
13 12 11 9 8 6 4 3 3 2 2 3 3 2 2 2 2 3 3 4 4 4 4 4 4 3 3 4 6 8 9 10 10 9 7 5 4 4 6 8 10 11 13 14 15 16 17 19 20 21 21 22 23 23 23 22 22 21 21 21 21 21 22 22 23 23 23 24 24
13 11 10 8 7 5 4 4 3 2 2 2 2 2 2 2 2 2 2 3 3 4 4 4 4 3 4 5 7 8 9 9 8 7 6 5 6 8 10 12 13 14 15 16 17 18 18 19 20 20 21 22 22 22 22 21 21 21 21 21 22 22 23 23 24 24 24 24 24
13 11 9 8 7 6 5 4 3 3 2 2 2 2 3 3 3 3 4 4 5 5 5 5 4 3 3 5 6 8 9 9 8 8 9 10 11 12 13 14 15 15 16 17 17 18 18 19 20 20 21 21 21 21 21 21 21 21 22 22 23 23 23 24 24 24 24 24 24
12 11 9 8 7 6 5 4 3 3 3 3 3 3 3 4 4 5 5 5 5 5 5 5 4 4 4 4 6 7 8 9 10 11 12 13 14 15 15 15 15 15 15 16 16 18 19 20 21 21 20 20 20 20 20 21 21 22 22 23 23 23 23 23 23 23 24 24 24
12 11 10 9 7 6 5 4 4 4 4 4 5 5 5 6 7 7 6 6 6 5 5 5 5 5 5 6 8 8 9 10 12 13 14 15 15 15 14 13 13 13 14 15 17 19 20 21 22 21 21 20 20 20 21 21 22 22 22 22 22 22 22 23 23 23 23 24 24
13 12 10 9 8 7 6 5 5 5 6 6 6 6 7 8 8 8 8 7 6 6 6 6 6 7 8 9 10 10 10 11 13 14 14 14 13 12 11 11 11 13 15 16 18 20 21 22 22 21 21 20 20 20 21 21 21 21 21 21 21 22 22 22 22 23 23 23 24
14 12 11 10 9 8 7 7 6 5 5 5 6 8 9 10 10 9 9 8 8 8 8 9 9 10 11 12 12 12 12 12 14 14 13 11 10 10 10 11 12 14 16 18 20 21 22 22 21 21 20 20 20 20 20 20 20 20 20 21 21 21 22 22 23 23 23 23 24
14 13 12 11 10 9 8 7 6 6 6 7 9 10 12 12 11 11 10 10 10 11 12 12 12 13 13 14 14 14 14 14 15 14 13 11 10 10 11 12 14 16 18 19 21 21 21 21 20 20 19 19 19 19 19 19 19 20 20 21 21 22 22 23 23 23 24 24 24
14 13 12 11 11 10 9 8 8 9 10 11 13 14 14 13 12 11 12 13 15 16 17 17 16 16 15 15 15 16 16 16 15 14 12 10 10 11 12 14 15 17 19 20 21 21 20 19 19 18 18 18 18 19 19 19 19 20 21 21 22 22 23 23 24 24 24 25 25
13 13 12 12 11 10 10 10 11 13 14 15 16 15 15 14 13 14 16 18 19 20 19 19 19 18 18 17 17 16 15 15 13 12 11 11 12 13 14 16 17 19 20 20 20 19 18 18 17 17 18 18 18 19 19 20 20 20 21 21 22 23 23 24 24 25 25 25 25
13 12 12 12 11 11 12 13 14 15 16 16 15 15 15 15 16 17 18 19 19 19 18 18 18 18 18 17 16 14 13 12 11 11 12 13 14 15 16 17 19 20 20 19 18 17 16 16 16 17 17 18 19 19 20 20 20 21 21 21 22 22 23 24 25 25 25 25 26
12 12 12 12 12 12 13 14 15 14 13 13 13 14 15 16 17 17 17 17 16 16 16 17 17 17 16 15 13 12 11 11 11 12 13 15 16 17 17 18 19 19 19 17 16 16 16 16 16 17 18 18 19 19 20 20 20 20 20 21 21 22 23 23 24 25 25 26 26
12 12 12 13 13 13 13 13 13 12 12 12 13 14 15 15 14 14 14 14 14 15 15 15 15 14 13 12 11 10 10 11 13 14 16 17 17 18 18 18 18 17 16 15 15 16 16 17 17 18 18 18 19 19 19 20 20 20 20 20 21 21 22 23 24 25 25 26 27
13 13 13 13 13 12 12 12 12 12 12 13 13 13 12 12 12 12 12 13 13 13 14 14 13 12 11 10 9 10 12 14 15 17 17 17 17 17 17 16 16 15 15 15 16 16 17 18 18 18 18 18 18 18 18 18 19 19 19 20 20 21 22 22 23 24 26 27 28
14 13 13 13 12 12 12 13 13 13 13 12 11 10 10 10 11 12 12 13 14 14 14 13 12 11 10 9 11 12 15 16 17 17 16 16 15 15 14 14 14 14 15 16 17 17 18 18 19 18 18 17 17 17 17 18 18 19 19 20 20 21 22 23 24 25 26 27 28
14 13 13 12 13 13 13 14 14 13 12 11 10 10 10 11 12 13 13 13 14 13 13 12 10 10 10 12 14 16 17 17 17 16 15 14 13 13 13 14 14 15 16 17 17 18 18 18 18 18 17 16 16 16 17 17 18 19 19 20 21 22 23 24 25 26 27 27 28
13 12 12 13 13 14 14 15 15 14 13 12 11 11 12 12 12 12 11 11 11 10 10 10 10 11 13 15 16 17 17 16 15 13 12 12 12 13 14 15 16 16 17 18 18 18 18 18 17 17 16 16 15 16 17 17 18 19 20 21 22 23 24 25 26 26 27 27 27
13 13 13 14 14 15 16 16 16 15 14 13 12 11 10 10 9 8 8 8 9 9 10 11 13 14 16 16 16 15 14 13 12 11 11 12 13 14 15 16 17 17 18 18 18 18 18 17 16 16 15 15 15 16 17 18 19 20 21 22 23 24 25 25 26 26 26 26 26
13 13 14 15 15 16 16 15 14 13 12 10 9 7 7 7 7 8 8 9 10 11 12 13 15 15 16 15 14 12 11 11 11 12 13 13 14 15 16 17 17 18 18 18 17 17 16 16 15 15 15 15 16 17 18 19 20 22 23 24 25 25 25 25 25 25 25 25 26
11 11 12 12 12 12 11 10 10 9 9 8 7 7 8 9 10 11 12 12 12 13 13 14 14 14 13 12 11 11 11 12 12 13 14 14 15 16 17 18 18 18 17 17 16 15 15 15 15 15 15 16 17 18 19 21 22 23 24 24 25 25 24 24 23 23 24 25 26
14 15 15 14 14 13 13 12 12 12 11 10 10 11 12 13 14 14 14 14 14 13 13 12 12 11 11 10 11 11 12 13 13 14 15 15 16 17 17 18 18 17 16 15 14 14 14 14 15 15 16 17 18 19 21 22 22 23 24 24 24 23 23 22 22 23 23 24 25
16 17 17 17 17 16 16 15 15 14 14 14 14 14 15 15 15 15 14 14 13 12 12 11 10 10 10 11 12 12 13 14 14 15 15 16 16 17 17 17 17 16 15 14 13 14 14 15 15 16 17 18 19 20 21 21 22 22 23 23 23 22 22 22 22 23 23 24 24
15 15 16 16 17 17 17 17 17 16 16 16 16 16 16 16 15 14 13 13 12 11 11 11 11 11 12 12 13 13 14 14 15 15 16 16 16 16 16 16 16 15 14 13 13 14 15 16 16 17 18 19 20 21 21 21 21 22 22 21 21 21 21 21 22 23 22 21 20
14 15 16 17 18 18 18 18 18 17 17 17 16 16 15 15 14 13 12 11 11 11 11 12 12 13 13 13 14 14 14 15 15 15 16 16 15 15 15 15 14 14 14 14 14 15 16 17 18 18 18 19 20 20 20 21 21 21 20 20 19 20 20 21 21 21 19 17 16
15 16 17 18 18 18 18 18 17 16 16 16 16 15 14 13 12 11 11 11 11 12 12 13 13 13 13 14 14 14 14 15 15 15 15 15 15 14 14 14 14 14 14 14 15 16 17 18 19 19 19 19 19 20 20 20 20 20 19 19 19 20 20 20 20 18 17 17 19
16 17 17 17 17 17 16 16 15 15 14 14 13 13 12 11 11 11 11 12 12 12 13 13 13 13 14 14 14 14 15 15 15 15 15 14 14 14 13 14 14 15 15 16 16 17 18 19 19 19 19 19 19 19 20 20 20 19 19 19 19 19 19 19 19 19 20 22 23
16 16 16 15 15 14 13 13 13 12 12 11 11 10 10 10 11 12 12 13 13 13 13 14 14 14 14 14 14 15 15 15 15 15 14 14 13 13 13 14 15 16 16 17 18 19 19 20 20 19 19 19 19 19 20 20 20 20 20 20 20 19 19 19 20 22 22 23 23
Wind_Direction
329 326 323 320 317 315 314 315 316 317 318 319 319 319 319 318 316 314 313 310 305 300 295 290 282 272 259 244 229 214 200 189 180 175 170 167 163 162 161 158 155 151 147 145 110 9 341 335 320 319 323 324 324 326 328 329 329 328 324 314 303 294 288 285 284 283 282 284 286
328 324 321 319 317 317 317 318 319 319 320 320 320 320 320 320 320 319 319 318 315 310 303 293 279 256 228 205 189 179 171 165 160 157 153 149 145 144 144 143 141 131 119 117 17 328 317 325 323 324 328 331 331 331 331 331 330 325 314 302 294 288 285 282 279 279 282 284 287
325 322 320 318 318 318 319 319 319 319 319 319 319 320 321 321 322 323 324 324 322 318 309 290 227 178 164 158 155 153 152 150 149 145 138 130 125 121 119 118 122 124 118 344 321 323 328 333 336 337 337 337 334 331 329 328 324 312 299 291 288 284 280 277 277 280 283 286 288
324 321 319 318 318 319 318 318 318 318 318 318 319 320 322 323 325 326 328 328 327 321 301 175 152 149 146 145 143 142 142 142 139 133 125 115 103 101 102 90 85 56 4 343 339 340 342 342 343 342 339 336 332 328 323 319 308 296 288 284 282 279 276 276 279 283 286 287 288
323 320 319 318 318 318 317 317 316 317 317 318 320 321 322 324 326 327 329 331 330 304 178 162 153 148 145 143 141 139 138 136 131 125 118 111 103 98 100 96 12 347 343 339 339 342 344 343 341 339 337 334 330 322 312 302 294 289 285 282 279 276 276 278 283 286 288 288 289
322 320 318 317 317 316 316 315 316 316 317 318 318 318 319 320 322 325 328 334 295 174 167 160 153 148 144 143 141 138 134 130 126 125 123 115 124 129 129 315 328 329 329 332 333 336 338 339 338 338 337 333 320 307 299 296 292 288 283 280 278 279 281 284 287 289 290 291 291
322 319 317 316 315 315 315 315 316 316 316 315 315 313 313 315 320 325 321 213 175 167 162 157 152 148 144 142 138 134 130 128 130 136 145 158 181 215 271 299 316 323 326 329 331 334 338 341 343 340 331 316 303 301 302 300 291 284 280 280 283 286 288 289 291 292 292 292 292
322 319 317 315 314 314 314 314 315 315 314 312 310 308 306 304 296 209 174 171 167 163 159 155 151 148 144 139 135 132 131 135 144 159 179 200 220 262 296 307 319 326 328 329 332 337 342 345 342 328 312 303 299 299 299 293 286 282 282 286 289 290 291 291 291 291 291 290 290
322 319 317 315 313 313 312 312 312 312 311 308 303 295 274 214 173 166 167 165 165 164 161 155 152 147 141 136 130 123 120 127 134 143 213 245 285 313 323 327 329 331 331 331 334 338 342 340 326 310 302 297 293 292 291 289 286 286 287 289 290 289 289 289 289 289 289 289 289
322 319 316 314 312 310 308 307 307 306 304 297 278 229 190 175 171 169 169 169 168 165 161 159 154 147 139 129 116 95 78 80 7 335 317 308 315 322 326 327 327 327 327 328 331 335 334 322 307 301 299 297 294 292 291 291 289 288 287 287 287 287 287 288 289 290 290 291 291
322 319 315 312 309 306 303 301 299 295 287 260 208 182 174 173 171 171 173 174 172 168 167 167 160 150 137 115 90 37 359 332 325 318 317 321 321 320 320 319 318 317 318 321 324 321 310 298 293 292 292 293 292 291 290 288 287 285 284 285 286 286 287 289 291 292 293 293 294
321 318 314 310 305 301 297 293 287 276 249 208 185 174 170 170 168 172 176 179 176 173 172 172 167 159 146 28 349 338 333 333 332 332 331 327 323 320 317 314 311 309 307 305 299 291 285 282 284 286 288 289 288 287 285 285 284 284 285 286 287 287 289 290 292 293 293 293 293
320 316 311 306 301 296 290 282 267 242 209 189 179 171 165 159 168 179 184 184 181 178 176 177 183 203 264 312 329 334 336 339 337 337 336 333 330 324 319 313 306 296 285 279 277 276 277 278 281 283 285 286 285 285 285 286 286 286 286 287 287 287 288 290 292 292 292 291 290
317 312 307 301 295 288 279 266 240 208 190 181 177 173 166 162 176 188 193 190 189 192 200 211 229 250 277 305 327 333 333 331 329 328 330 333 333 327 313 296 283 275 272 275 277 278 279 280 283 284 285 286 287 288 288 288 287 287 286 286 286 287 288 289 290 291 290 288 287
312 306 300 294 286 277 263 239 212 192 185 185 186 189 188 186 192 201 205 202 205 216 229 236 243 257 281 306 324 332 333 331 329 329 329 327 314 292 279 275 275 275 277 279 281 283 284 285 286 288 289 289 290 290 290 289 288 287 287 287 287 288 289 290 290 290 288 287 286
306 299 291 283 273 260 244 226 213 205 205 210 221 234 243 241 240 238 235 227 223 225 228 229 236 258 288 312 325 331 334 334 332 326 314 296 282 275 274 276 278 280 282 283 285 286 288 290 291 292 293 292 292 291 291 290 289 289 289 289 289 289 289 290 290 289 288 287 285
299 290 281 271 258 246 236 230 228 228 233 244 258 267 271 271 268 261 252 241 231 225 223 227 239 261 291 312 322 327 327 323 315 304 293 285 280 278 278 279 281 283 285 286 288 290 293 295 297 297 296 295 294 293 292 291 291 290 290 291 290 290 290 290 290 289 289 288 286
293 282 271 258 246 238 236 237 240 242 243 249 255 260 264 267 259 250 242 233 226 223 225 231 243 259 280 299 308 311 308 302 295 290 286 283 282 281 281 282 284 287 290 292 295 297 299 301 301 301 300 298 296 295 294 293 292 292 292 292 292 292 292 292 291 291 290 289 288
286 274 263 252 241 235 234 236 237 238 240 244 250 253 257 261 251 237 223 212 207 211 220 229 241 253 267 282 291 291 286 283 283 284 285 284 283 282 282 284 288 292 296 299 301 303 303 303 303 302 301 299 297 296 295 294 293 293 293 293 293 293 294 294 294 294 293 292 291
279 267 258 251 244 239 234 231 233 236 240 245 249 250 252 252 240 227 216 208 210 215 223 233 242 252 266 278 283 280 275 273 279 284 286 285 282 280 281 286 293 298 301 302 302 302 301 301 301 300 299 298 297 296 295 295 295 295 295 296 296 296 296 296 296 296 295 294 293
273 263 255 250 246 241 235 231 234 240 246 252 257 256 254 252 239 228 222 224 229 233 237 241 247 256 268 277 278 275 270 271 279 284 285 282 277 276 281 289 297 300 301 300 299 298 297 297 297 297 297 297 296 296 297 297 297 298 298 298 298 298 298 298 297 296 295 294 293
269 260 253 248 243 238 233 234 243 255 265 268 267 262 257 250 238 231 233 242 249 253 252 251 253 258 266 273 275 274 273 275 280 283 282 279 277 279 286 294 298 300 299 298 296 295 295 295 295 296 297 297 298 298 299 300 300 300 300 299 299 298 298 297 296 295 294 293 293
265 256 250 245 241 237 237 244 258 267 271 269 264 258 249 240 236 241 254 265 271 270 267 262 259 259 265 272 277 279 280 281 283 282 281 280 282 286 292 297 300 299 298 296 295 294 295 295 296 297 299 300 300 301 301 301 301 301 301 300 299 298 297 296 295 294 294 293 292
262 253 248 244 242 243 249 260 269 272 269 265 258 249 242 241 250 264 275 281 282 280 275 268 262 262 267 275 280 282 284 284 284 282 281 282 286 292 297 300 300 299 296 295 295 295 296 298 299 301 302 302 302 303 303 302 302 302 301 300 299 298 297 296 295 294 293 292 292
259 253 248 245 246 252 262 270 273 271 265 259 252 247 248 257 269 279 284 286 285 282 276 270 267 268 273 278 282 284 284 283 283 285 288 291 294 298 301 301 299 296 295 295 296 297 299 301 303 305 305 305 305 304 303 303 302 301 300 299 298 297 296 295 294 293 292 292 291
258 252 249 248 253 261 269 274 273 269 262 256 254 257 265 273 279 283 285 285 284 281 276 273 272 274 276 279 281 281 280 281 285 293 299 302 304 303 302 298 295 294 295 296 299 301 303 305 306 307 307 307 306 305 304 303 302 301 300 298 296 295 294 293 293 292 292 291 291
257 252 252 255 261 267 273 275 273 269 266 265 267 272 277 280 281 282 283 283 282 280 278 276 277 278 279 280 279 278 280 287 295 301 305 307 306 302 297 294 293 295 297 300 303 306 307 308 308 308 308 308 307 306 304 303 302 300 298 296 295 294 293 293 293 293 293 292 292
260 259 261 265 271 276 279 279 276 273 273 274 276 278 279 280 281 281 282 283 283 283 282 282 283 284 282 279 278 282 290 298 303 306 306 304 299 295 292 293 295 299 303 306 309 310 310 310 309 310 310 309 307 305 303 302 300 298 297 295 294 294 294 294 294 295 295 295 294
268 269 273 279 285 290 291 288 284 281 280 279 279 280 281 283 285 286 288 289 289 290 291 292 293 290 285 282 286 293 299 304 305 304 301 295 291 291 293 298 302 306 309 311 312 312 312 312 312 312 311 309 307 304 302 300 298 297 296 295 295 296 296 297 297 297 296 296 295
277 280 285 292 297 299 298 295 292 290 288 287 286 287 288 290 291 293 294 296 298 299 301 301 299 295 291 293 297 301 304 303 301 296 292 290 293 298 302 306 309 312 314 314 314 314 313 313 313 313 311 308 305 302 301 299 299 298 298 298 298 299 299 299 298 297 296 294 293
284 289 294 298 301 301 299 296 294 292 291 291 293 294 295 295 297 299 303 306 308 309 308 305 301 299 299 301 303 303 301 298 294 293 295 300 305 308 311 313 314 315 316 315 315 315 315 315 314 313 310 307 304 302 301 301 301 301 301 301 301 301 300 299 298 296 295 293 292
289 294 297 299 298 296 293 291 290 290 292 294 297 300 302 305 309 314 319 321 320 317 312 307 305 304 304 304 302 299 296 296 298 303 308 312 314 315 316 316 316 317 316 316 316 316 315 315 313 311 308 307 305 305 304 304 304 304 303 303 302 301 300 299 297 296 294 293 292
296 299 300 299 297 294 294 295 297 300 304 308 313 320 327 332 334 334 331 327 322 317 312 309 307 305 303 301 299 298 300 304 309 312 315 317 318 318 317 317 317 317 317 317 317 316 315 313 311 309 308 308 307 307 307 307 306 305 304 303 302 301 300 299 298 296 295 293 292
332 331 329 325 322 321 324 330 338 343 346 350 356 357 353 347 340 335 330 325 319 314 309 306 303 301 299 300 303 306 309 313 315 318 319 320 319 318 317 317 317 318 318 318 317 316 314 312 311 311 311 311 311 310 310 309 307 306 305 303 302 302 301 299 298 296 295 293 291
23 23 22 19 17 16 16 17 16 14 10 5 359 352 347 342 338 334 329 324 317 311 307 303 301 300 302 306 311 314 317 319 320 320 321 320 319 319 318 318 318 319 319 318 317 315 314 314 314 314 315 314 313 312 311 309 307 306 305 304 303 302 302 300 298 296 294 293 291
33 33 31 28 24 21 18 14 10 5 359 354 349 345 342 340 337 334 330 325 319 314 310 308 308 309 313 316 318 320 321 322 322 322 321 321 320 320 320 319 319 319 319 318 317 316 316 317 318 318 318 316 314 313 311 309 307 306 305 304 304 303 301 299 297 295 294 292 291
23 20 16 12 9 6 3 0 357 355 352 349 345 343 340 337 335 332 330 326 322 319 317 317 317 318 320 320 321 322 323 324 324 324 323 323 323 323 322 321 321 320 319 318 318 318 319 320 321 321 319 317 314 312 310 308 307 306 305 304 302 301 299 298 296 294 292 290 292
11 6 3 360 358 356 354 353 352 350 347 344 341 338 334 331 329 328 327 325 324 324 322 321 321 321 322 322 323 324 324 326 326 327 327 327 326 325 324 323 321 320 320 320 320 321 322 322 322 321 319 316 313 311 309 308 308 307 305 303 301 300 299 298 295 291 289 291 298
4 1 358 356 354 352 350 349 347 344 341 337 333 330 327 324 323 323 323 324 324 324 323 323 323 323 324 325 326 327 328 329 330 331 331 331 329 327 325 323 321 321 321 322 323 323 323 323 322 321 318 315 312 310 309 309 308 306 304 302 301 301 300 298 293 289 291 298 306
359 358 356 353 351 348 345 343 340 337 333 328 324 321 319 319 320 322 324 325 325 326 326 326 327 328 329 330 331 332 334 335 335 335 334 333 330 327 325 323 322 322 323 323 324 324 324 323 322 320 317 314 312 310 310 309 307 305 303 303 302 301 299 295 291 292 296 302 306
358 356 353 350 346 342 339 335 331 328 324 320 316 316 318 322 325 328 330 330 330 331 331 331 332 333 334 336 337 337 337 338 338 336 335 332 330 327 326 325 324 324 324 324 324 324 324 323 321 318 316 314 312 311 310 309 306 304 303 303 303 301 297 294 293 294 297 300 302
Height
784 783 782 781 780 779 778 777 776 775 774 773 771 770 769 768 766 765 765 764 762 761 761 760 760 760 760 761 761 763 764 765 767 769 770 771 772 772 773 774 775 775 776 776 777 777 778 778 779 779 780 780 781 781 782 783 783 784 784 785 785 786 787 788 788 788 788 788 788
782 781 780 779 778 777 776 775 774 773 772 771 770 769 768 767 765 765 764 763 762 761 760 760 760 760 761 761 762 763 765 766 767 768 769 770 771 772 772 773 774 774 775 775 776 776 777 777 778 778 779 780 780 781 782 782 783 783 784 784 785 786 786 786 786 786 786 786 786
780 779 778 777 776 775 775 774 773 771 770 770 769 768 767 766 765 764 763 763 762 762 761 761 761 761 762 762 763 764 765 766 767 768 769 770 770 771 771 772 773 774 774 775 775 776 776 777 777 778 779 780 780 781 781 782 782 783 783 784 784 785 785 785 785 785 785 785 785
779 778 777 776 775 774 773 772 771 770 769 768 767 766 766 765 765 764 763 763 763 762 762 762 762 762 763 763 764 765 766 767 767 768 769 769 770 770 771 772 772 773 774 774 775 775 776 776 777 777 778 779 780 780 781 781 782 782 783 783 783 783 783 783 783 783 783 783 783
777 776 775 775 774 773 772 771 770 769 768 767 766 766 765 765 764 764 763 763 763 763 763 763 763 763 763 764 765 765 766 767 768 768 769 769 770 770 771 772 772 773 773 774 775 775 775 775 776 777 778 779 779 780 780 780 781 781 781 781 781 781 781 782 782 782 781 781 781
776 775 774 773 773 772 771 770 769 768 767 766 766 765 765 764 764 763 763 763 763 763 763 763 763 763 763 764 765 765 766 767 768 768 769 769 770 770 770 771 772 773 773 774 774 775 775 775 776 777 778 778 779 779 779 779 779 779 779 779 780 780 780 780 780 780 780 780 780
775 774 773 772 771 771 770 769 768 767 766 766 765 765 764 764 763 763 763 763 764 764 764 764 763 764 764 764 765 765 766 767 768 768 769 769 770 770 770 771 772 772 773 774 774 774 775 775 775 776 777 777 777 777 778 778 778 778 778 778 778 779 779 779 779 779 779 778 778
775 774 773 772 771 770 769 768 768 767 766 765 765 764 764 764 763 763 763 763 764 764 764 764 764 765 765 765 765 766 766 767 768 768 769 769 769 770 771 771 772 772 773 773 774 774 774 774 775 775 776 776 776 776 776 776 776 776 776 776 777 777 777 777 777 777 777 777 777
774 773 772 771 770 770 769 768 767 767 766 765 765 764 764 764 763 763 763 764 764 764 765 765 765 765 765 765 765 766 766 767 767 768 768 768 769 770 770 771 771 772 772 773 773 773 773 774 774 775 775 775 775 775 775 775 775 775 775 775 775 775 775 776 776 776 776 775 775
774 773 772 771 770 770 769 768 767 767 766 765 765 764 764 764 764 764 764 764 764 765 765 765 766 766 766 766 766 766 766 767 767 767 768 768 769 769 770 770 770 771 771 772 772 772 773 773 773 774 774 774 774 774 774 774 774 774 774 774 774 774 774 774 774 774 774 774 774
773 773 772 771 770 770 769 768 767 767 766 765 765 765 764 764 764 764 764 764 765 765 765 766 766 767 767 767 767 767 767 767 767 767 768 768 768 769 769 770 770 770 771 771 772 772 772 773 773 773 773 773 773 773 773 773 773 773 773 772 772 772 772 772 772 772 772 772 772
773 772 772 771 770 770 769 768 767 767 766 766 766 765 765 765 764 764 765 765 765 765 765 766 767 768 768 768 768 767 767 767 767 767 767 767 768 768 768 769 770 770 770 771 771 772 772 772 772 772 771 771 771 771 771 771 771 771 771 771 771 770 770 770 770 771 770 770 770
773 772 771 771 770 770 769 768 768 767 767 767 766 766 766 765 765 765 765 765 765 765 765 766 767 768 768 768 768 767 767 767 767 767 767 767 767 768 768 769 769 770 770 770 770 771 771 771 770 770 770 770 770 770 770 770 770 770 769 769 769 769 769 769 769 769 769 769 769
772 772 771 771 770 770 769 768 768 767 767 767 767 767 766 766 766 765 765 765 765 765 765 766 766 767 768 768 768 767 767 767 767 767 767 767 767 767 768 768 769 769 769 769 769 770 770 769 769 769 769 769 769 769 769 769 768 768 768 768 768 767 767 767 767 767 767 767 767
772 771 771 771 770 770 769 768 768 768 768 768 768 768 767 767 766 766 765 765 765 765 765 765 766 766 766 767 767 767 767 767 766 766 766 766 767 767 767 768 768 768 768 768 768 768 768 768 768 768 768 767 767 767 767 767 767 767 766 766 766 766 766 766 766 766 765 765 765
772 771 771 770 770 769 769 768 768 767 768 768 768 768 768 767 767 767 766 766 765 765 765 765 765 765 766 766 766 766 766 766 766 766 766 766 766 766 766 767 767 767 767 767 767 767 767 767 767 767 767 766 766 766 766 766 765 765 765 765 765 765 764 764 764 764 763 763 763
771 771 770 770 770 769 768 768 768 767 767 768 768 768 768 768 767 767 767 766 765 765 765 765 765 765 765 765 766 766 766 766 766 766 766 766 765 765 766 766 766 766 766 766 766 766 766 766 766 766 765 765 765 765 764 764 764 764 764 763 763 763 762 762 762 762 761 761 760
771 770 770 769 769 768 768 768 767 767 767 767 767 768 768 768 768 767 767 766 766 765 765 765 765 765 765 765 765 765 765 765 765 765 765 765 765 765 765 765 765 765 765 765 765 765 765 765 765 764 764 764 763 763 763 763 762 762 762 761 761 761 760 760 760 760 759 759 759
770 770 769 769 768 768 768 767 767 767 767 767 767 767 767 767 767 767 766 766 765 765 765 764 764 764 764 764 764 765 765 765 765 764 764 764 764 764 764 764 765 765 765 764 764 764 763 763 763 763 762 762 762 761 761 761 760 760 760 760 759 759 759 758 758 758 757 757 756
769 769 768 768 767 767 767 767 766 766 766 766 766 766 767 767 767 766 766 765 765 765 764 764 763 763 763 763 763 763 763 764 763 763 763 763 763 763 763 763 763 763 763 763 763 762 762 762 762 761 761 761 760 760 760 759 759 758 758 758 757 757 757 756 756 756 755 755 755
768 767 767 766 766 766 766 766 766 766 766 766 766 766 766 766 766 765 765 765 764 764 763 763 762 762 762 762 762 762 762 762 762 762 762 762 762 762 762 762 762 762 761 761 761 761 761 760 760 760 760 759 759 758 758 757 757 756 756 756 755 755 755 755 754 754 754 753 753
766 766 766 765 765 765 765 765 765 765 765 765 765 765 765 765 765 765 764 764 764 763 763 762 762 761 761 761 761 761 761 761 761 761 761 761 760 760 760 760 760 760 760 760 760 760 759 759 759 758 758 757 757 756 756 755 755 755 754 754 754 753 753 753 752 752 751 751 751
765 765 765 765 764 764 764 764 764 764 764 764 765 764 764 764 764 764 764 763 763 762 762 761 761 761 760 760 760 760 760 760 760 760 760 760 760 760 759 759 759 759 759 759 758 758 758 757 757 756 756 755 755 755 754 754 753 753 752 752 751 751 751 750 750 750 750 749 749
765 765 764 764 764 763 763 763 763 763 763 763 763 763 763 763 763 762 762 762 761 761 760 760 760 760 760 760 760 760 760 759 759 759 759 759 759 758 758 758 758 758 757 757 757 756 756 755 755 755 754 754 753 753 752 752 751 751 750 750 750 749 749 748 748 748 747 747 746
764 764 764 764 763 763 762 762 762 762 761 761 761 761 762 762 762 761 761 760 760 760 760 759 759 759 759 759 759 759 758 758 758 758 758 757 757 757 756 756 756 756 756 755 755 755 755 754 754 753 752 752 751 751 750 750 750 749 749 748 748 747 747 746 746 745 745 745 744
763 763 763 763 762 762 762 761 761 760 760 760 760 761 761 761 760 760 760 759 759 759 759 759 758 758 758 758 758 757 757 757 757 757 756 756 755 755 755 755 755 755 755 754 754 754 753 753 752 752 751 750 750 749 749 748 748 747 747 746 746 745 745 744 744 743 743 743 742
762 762 762 762 762 761 761 760 760 760 760 760 760 760 760 760 760 759 759 758 758 758 758 758 757 757 757 757 757 756 756 756 756 755 755 755 755 754 754 754 754 754 753 753 753 752 751 751 750 750 750 749 748 747 747 746 746 745 745 745 744 744 743 742 741 741 740 740 740
762 762 761 761 761 760 760 760 760 759 759 759 759 759 759 759 759 758 758 758 758 757 757 757 757 756 756 756 756 755 755 755 755 755 754 754 754 753 753 753 753 752 752 751 751 750 750 749 749 748 748 747 746 746 745 745 744 744 743 743 742 742 741 740 740 739 738 738 737
761 761 761 761 761 760 760 760 759 759 758 758 758 758 758 758 758 758 758 757 757 757 757 756 756 756 756 755 755 755 754 754 754 754 753 753 753 752 752 752 751 751 750 750 749 749 748 747 747 746 746 745 745 744 744 743 743 742 741 741 740 740 740 739 738 737 737 736 735
761 761 761 761 760 760 760 760 759 758 758 757 757 757 757 758 758 757 757 757 757 756 756 756 756 756 755 755 754 754 754 753 753 753 752 752 751 751 751 750 750 749 749 748 748 747 746 746 745 745 744 744 743 743 742 741 741 740 740 739 739 738 738 737 736 735 735 734 733
761 761 760 760 760 760 760 760 759 759 758 757 757 757 757 757 757 757 757 756 756 756 756 756 756 755 755 754 754 753 753 753 752 752 751 751 750 750 749 749 748 748 747 746 746 745 745 744 744 743 743 742 742 741 740 740 740 739 738 738 737 736 736 735 735 734 733 732 731
760 760 760 760 760 760 759 759 759 758 758 758 757 757 757 757 757 757 756 756 756 756 755 755 755 755 754 754 753 753 752 752 752 751 750 750 749 748 748 747 747 746 745 745 744 744 743 743 742 742 741 741 740 740 739 738 738 737 736 736 735 735 734 733 732 731 730 730 729
760 760 760 759 759 759 759 759 759 758 758 758 757 757 757 757 757 757 756 756 756 755 755 755 755 754 754 753 753 752 752 751 751 750 749 749 748 747 746 745 745 745 744 743 743 742 742 741 741 740 740 739 739 738 738 737 736 735 735 734 733 733 732 731 730 730 729 728 727
760 760 760 760 759 759 759 759 759 759 758 758 758 757 757 757 757 756 756 756 755 755 755 754 754 754 753 753 753 752 751 750 750 749 748 747 746 745 745 744 744 743 743 742 741 741 740 740 740 739 739 738 737 737 736 735 735 734 733 732 731 730 730 729 728 728 727 726 725
760 760 760 760 760 760 760 760 759 759 759 758 758 758 757 757 756 756 755 755 755 755 754 754 754 753 753 753 752 751 750 749 748 748 747 746 745 744 743 743 742 742 741 741 740 740 740 739 738 738 737 737 736 735 735 734 733 732 731 730 729 728 728 727 726 726 725 724 723
761 761 762 762 761 761 761 760 760 760 759 759 758 758 757 757 756 756 755 755 755 754 754 754 753 753 752 752 751 750 749 748 747 746 745 745 744 743 742 742 741 741 740 740 740 739 738 738 737 737 736 735 735 734 733 732 731 730 729 728 727 727 726 725 725 724 723 722 721
763 763 763 763 762 762 761 761 760 760 760 759 759 758 757 757 756 756 755 755 755 754 754 753 753 752 751 751 750 749 748 747 746 745 744 743 743 742 741 740 740 740 740 739 738 738 737 737 736 736 735 734 733 732 731 730 730 729 728 727 726 725 725 724 723 722 721 720 720
764 764 764 764 763 763 762 762 761 760 760 759 759 758 757 757 756 756 755 755 755 754 753 753 752 751 750 750 749 748 747 746 745 744 743 742 742 741 740 740 740 739 739 738 737 737 736 736 735 735 734 733 732 731 730 729 728 727 726 725 725 724 723 722 721 720 720 719 718
765 765 765 764 764 763 763 762 761 761 760 759 759 758 757 757 756 756 755 755 755 754 753 752 751 751 750 749 748 747 746 745 744 743 742 741 741 740 740 739 739 738 738 737 736 736 735 735 734 733 733 732 731 730 729 728 727 726 725 724 723 722 721 720 720 719 718 717 717
765 765 765 764 764 763 763 762 761 760 760 759 759 758 757 757 756 756 755 755 754 754 753 752 751 750 749 748 747 746 745 744 743 743 742 741 740 740 739 739 738 737 737 736 735 735 734 733 733 732 731 730 730 729 728 727 725 725 724 723 722 721 720 719 718 717 716 715 715
765 764 764 764 763 763 762 761 761 760 760 759 758 758 757 757 756 756 755 755 754 753 752 750 750 749 748 747 746 745 744 743 742 742 741 740 740 739 739 738 737 736 736 735 735 734 733 732 731 731 730 729 728 727 726 725 725 723 722 721 721 720 719 717 716 715 715 714 713